This demonstration page uses our WeatherBlox Daily Observations layout. Learn more.

Left ArrowRight Arrow

Hourly Observations for August 25, 2022

Temp ( °F °C ) Dew Point ( °F °C ) Humidity (%) Winds ( mph kmh ) Pressure ( in mb ) Visibility ( mi km ) Precip ( " mm )
12:15 am 00:15 Clear 70 21 68 20 94 94 Calm 30.08 1019 10 16 0.00 0.00
12:35 am 00:35 Clear 70 21 68 20 94 94 Calm 30.08 1019 10 16 0.00 0.00
12:55 am 00:55 Clear 70 21 66 19 88 88 Calm 30.09 1019 10 16 0.00 0.00
1:15 am 01:15 Clear 70 21 64 18 83 83 Calm 30.09 1019 10 16 0.00 0.00
1:35 am 01:35 Clear 68 20 64 18 88 88 Calm 30.08 1019 10 16 0.00 0.00
1:55 am 01:55 Clear 68 20 64 18 88 88 Calm 30.09 1019 10 16 0.00 0.00
2:15 am 02:15 Clear 68 20 64 18 88 88 Calm 30.09 1019 10 16 0.00 0.00
2:35 am 02:35 Mostly Cloudy 68 20 66 19 94 94 Calm 30.08 1019 10 16 0.00 0.00
2:55 am 02:55 Mostly Cloudy 70 21 66 19 88 88 Calm 30.08 1019 10 16 0.00 0.00
3:15 am 03:15 Partly Cloudy 66 19 64 18 94 94 Calm 30.08 1019 10 16 0.00 0.00
3:35 am 03:35 Clear 68 20 66 19 94 94 Calm 30.07 1018 10 16 0.00 0.00
3:55 am 03:55 Partly Cloudy 66 19 64 18 94 94 Calm 30.07 1018 10 16 0.00 0.00
4:15 am 04:15 Clear 66 19 66 19 100 100 Calm 30.07 1018 10 16 0.00 0.00
4:35 am 04:35 Clear 66 19 64 18 94 94 Calm 30.07 1018 10 16 0.00 0.00
4:55 am 04:55 Clear 64 18 64 18 100 100 Calm 30.07 1018 10 16 0.00 0.00
5:15 am 05:15 Clear 66 19 64 18 94 94 Calm 30.07 1018 10 16 0.00 0.00
5:35 am 05:35 Clear 64 18 64 18 100 100 Calm 30.07 1018 10 16 0.00 0.00
5:55 am 05:55 Clear 64 18 64 18 100 100 Calm 30.07 1018 10 16 0.00 0.00
6:15 am 06:15 Clear 64 18 64 18 100 100 Calm 30.08 1019 10 16 0.00 0.00
6:35 am 06:35 Sunny 64 18 64 18 100 100 Calm 30.08 1019 10 16 0.00 0.00
6:55 am 06:55 Partly Cloudy 66 19 64 18 94 94 Calm 30.08 1019 10 16 0.00 0.00
7:15 am 07:15 Sunny 66 19 64 18 94 94 Calm 30.09 1019 10 16 0.00 0.00
7:35 am 07:35 Sunny 68 20 64 18 88 88 Calm 30.09 1019 10 16 0.00 0.00
7:55 am 07:55 Sunny 68 20 64 18 88 88 Calm 30.09 1019 10 16 0.00 0.00
8:15 am 08:15 Sunny 70 21 66 19 88 88 Calm 30.09 1019 10 16 0.00 0.00
8:35 am 08:35 Sunny 72 22 68 20 88 88 Calm 30.09 1019 10 16 0.00 0.00
8:55 am 08:55 Partly Cloudy 75 24 66 19 74 74 Calm 30.09 1019 10 16 0.00 0.00
9:15 am 09:15 Mostly Cloudy 75 24 66 19 74 74 Calm 30.10 1019 10 16 0.00 0.00
9:35 am 09:35 Partly Cloudy 77 25 66 19 69 69 Calm 30.09 1019 10 16 0.00 0.00
9:55 am 09:55 Partly Cloudy 79 26 68 20 70 70 Calm 30.09 1019 10 16 0.00 0.00
10:15 am 10:15 Mostly Cloudy 81 27 68 20 66 66 Calm 30.09 1019 10 16 0.00 0.00
10:35 am 10:35 Partly Cloudy 81 27 70 21 70 70 Calm 30.09 1019 N/A 0.00 0.00
10:55 am 10:55 Sunny 82 28 70 21 66 66 Calm 30.09 1019 10 16 0.00 0.00
11:15 am 11:15 Sunny 82 28 70 21 66 66 Calm 30.09 1019 10 16 0.00 0.00
11:35 am 11:35 Sunny 82 28 70 21 66 66 Calm 30.09 1019 10 16 0.00 0.00
11:55 am 11:55 Sunny 84 29 70 21 62 62 NNW 5 7 30.09 1019 N/A 0.00 0.00
12:15 pm 12:15 Sunny 86 30 72 22 62 62 Calm 30.08 1019 N/A 0.00 0.00
12:35 pm 12:35 Sunny 86 30 70 21 59 59 Calm 30.07 1018 N/A 0.00 0.00
12:55 pm 12:55 Sunny 86 30 70 21 59 59 NNW 5 7 30.07 1018 10 16 0.00 0.00
1:15 pm 13:15 Sunny 86 30 70 21 59 59 W 6 9 30.06 1018 10 16 0.00 0.00
1:35 pm 13:35 Sunny 88 31 70 21 55 55 W 3 6 30.06 1018 10 16 0.00 0.00
1:55 pm 13:55 Sunny 88 31 70 21 55 55 WNW 8 13 30.05 1018 10 16 0.00 0.00
2:15 pm 14:15 Sunny 88 31 70 21 55 55 WNW 8 13 30.05 1018 N/A 0.00 0.00
2:35 pm 14:35 Sunny 88 31 70 21 55 55 NW 7 11 30.04 1017 10 16 0.00 0.00
2:55 pm 14:55 Sunny 88 31 68 20 52 52 WNW 5 7 30.04 1017 10 16 0.00 0.00
3:15 pm 15:15 Sunny 88 31 70 21 55 55 WSW 5 7 30.03 1017 10 16 0.00 0.00
3:35 pm 15:35 Partly Cloudy 90 32 68 20 49 49 W 6 9 30.02 1016 10 16 0.00 0.00
3:55 pm 15:55 Partly Cloudy 90 32 70 21 52 52 Calm 30.00 1016 10 16 0.00 0.00
4:15 pm 16:15 Sunny 90 32 68 20 49 49 S 3 6 30.00 1016 N/A 0.00 0.00
4:35 pm 16:35 Sunny 88 31 68 20 52 52 SW 5 7 30.01 1016 N/A 0.00 0.00
4:55 pm 16:55 Partly Cloudy 88 31 68 20 52 52 ESE 7 11 30.01 1016 N/A 0.00 0.00
5:15 pm 17:15 Sunny 88 31 68 20 52 52 SSE 6 9 30.00 1016 10 16 0.00 0.00
5:35 pm 17:35 Partly Cloudy 86 30 70 21 59 59 SE 5 7 30.00 1016 10 16 0.00 0.00
5:55 pm 17:55 Mostly Cloudy 86 30 70 21 59 59 SSW 6 9 30.00 1016 10 16 0.00 0.00
6:15 pm 18:15 Partly Cloudy 86 30 70 21 59 59 SSW 7 11 30.00 1016 10 16 0.00 0.00
6:35 pm 18:35 Sunny 84 29 70 21 62 62 SSW 5 7 30.00 1016 10 16 0.00 0.00
6:55 pm 18:55 Sunny 82 28 70 21 66 66 SSW 6 9 30.01 1016 10 16 0.00 0.00
7:15 pm 19:15 Sunny 82 28 72 22 70 70 SSW 5 7 30.01 1016 10 16 0.00 0.00
7:35 pm 19:35 Sunny 82 28 70 21 66 66 S 3 6 30.00 1016 10 16 0.00 0.00
7:55 pm 19:55 Clear 82 28 70 21 66 66 SSW 5 7 30.01 1016 10 16 0.00 0.00
8:15 pm 20:15 Partly Cloudy 82 28 70 21 66 66 S 5 7 30.01 1016 10 16 0.00 0.00
8:35 pm 20:35 Partly Cloudy 81 27 70 21 70 70 S 6 9 30.01 1016 10 16 0.00 0.00
8:55 pm 20:55 Partly Cloudy 81 27 70 21 70 70 S 5 7 30.02 1017 10 16 0.00 0.00
9:15 pm 21:15 Partly Cloudy 81 27 70 21 70 70 S 6 9 30.02 1017 10 16 0.00 0.00
9:35 pm 21:35 Partly Cloudy 79 26 70 21 74 74 S 5 7 30.03 1017 10 16 0.00 0.00
9:55 pm 21:55 Mostly Cloudy 79 26 72 22 79 79 S 3 6 30.03 1017 10 16 0.00 0.00
10:15 pm 22:15 Mostly Cloudy 79 26 72 22 79 79 S 5 7 30.02 1017 10 16 0.00 0.00
10:35 pm 22:35 Clear 79 26 72 22 79 79 S 3 6 30.02 1017 10 16 0.00 0.00
10:55 pm 22:55 Mostly Cloudy 79 26 72 22 79 79 S 5 7 30.02 1017 10 16 0.00 0.00
11:15 pm 23:15 Cloudy 79 26 72 22 79 79 S 5 7 30.03 1017 10 16 0.00 0.00
11:35 pm 23:35 Mostly Cloudy 77 25 72 22 83 83 S 6 9 30.03 1017 10 16 0.00 0.00
11:55 pm 23:55 Mostly Cloudy 77 25 72 22 83 83 S 6 9 30.03 1017 10 16 0.00 0.00

Powered by AerisWeather